Time,TemperatureF,DewpointF,PressureIn,WindDirection,WindDirectionDegrees,WindSpeedMPH,WindSpeedGustMPH,Humidity,HourlyPrecipIn,Conditions,Clouds,dailyrainin,SoftwareType,DateUTC
2013-08-20 00:00:00,71.2,71.0,30.09,ENE,75,0.0,1.0,98,0.00,,,0.04,weatherlink.com 1.10,2013-08-20 04:00:00,
2013-08-20 00:15:00,71.3,71.0,30.09,East,87,0.0,1.0,98,0.00,,,0.04,weatherlink.com 1.10,2013-08-20 04:15:00,
2013-08-20 00:30:00,71.4,71.0,30.09,East,87,0.0,1.0,98,0.00,,,0.04,weatherlink.com 1.10,2013-08-20 04:30:00,
2013-08-20 00:45:00,71.5,71.0,30.09,East,87,0.0,1.0,97,0.00,,,0.04,weatherlink.com 1.10,2013-08-20 04:45:00,
2013-08-20 01:00:00,71.6,71.0,30.09,East,86,0.0,1.0,97,0.00,,,0.04,weatherlink.com 1.10,2013-08-20 05:00:00,
2013-08-20 01:15:00,71.5,71.0,30.09,East,97,0.0,2.0,97,0.00,,,0.04,weatherlink.com 1.10,2013-08-20 05:15:00,
2013-08-20 01:30:00,71.4,71.0,30.10,East,96,0.0,1.0,98,0.00,,,0.04,weatherlink.com 1.10,2013-08-20 05:30:00,
2013-08-20 01:45:00,71.4,71.0,30.10,East,86,0.0,3.0,98,0.00,,,0.04,weatherlink.com 1.10,2013-08-20 05:45:00,
2013-08-20 02:00:00,71.5,71.0,30.10,East,82,0.0,3.0,98,0.00,,,0.04,weatherlink.com 1.10,2013-08-20 06:00:00,
2013-08-20 02:15:00,71.5,71.0,30.09,ENE,77,0.0,1.0,97,0.00,,,0.04,weatherlink.com 1.10,2013-08-20 06:15:00,
2013-08-20 02:30:00,71.5,71.0,30.09,East,86,0.0,1.0,97,0.00,,,0.04,weatherlink.com 1.10,2013-08-20 06:30:00,
2013-08-20 02:45:00,71.4,71.0,30.08,East,91,0.0,3.0,97,0.00,,,0.04,weatherlink.com 1.10,2013-08-20 06:45:00,
2013-08-20 03:00:00,71.4,71.0,30.08,ENE,75,0.0,1.0,98,0.00,,,0.04,weatherlink.com 1.10,2013-08-20 07:00:00,
2013-08-20 03:15:00,71.4,71.0,30.08,East,95,0.0,1.0,98,0.00,,,0.04,weatherlink.com 1.10,2013-08-20 07:15:00,
2013-08-20 03:30:00,71.4,71.0,30.08,East,88,0.0,0.0,98,0.00,,,0.04,weatherlink.com 1.10,2013-08-20 07:30:00,
2013-08-20 03:45:00,71.3,71.0,30.08,East,84,0.0,1.0,98,0.00,,,0.04,weatherlink.com 1.10,2013-08-20 07:45:00,
2013-08-20 04:00:00,71.2,71.0,30.07,East,89,0.0,2.0,98,0.00,,,0.04,weatherlink.com 1.10,2013-08-20 08:00:00,
2013-08-20 04:15:00,71.2,71.0,30.07,East,87,0.0,1.0,98,0.00,,,0.04,weatherlink.com 1.10,2013-08-20 08:15:00,
2013-08-20 04:30:00,71.2,71.0,30.07,ESE,104,2.0,2.0,98,0.00,,,0.04,weatherlink.com 1.10,2013-08-20 08:30:00,
2013-08-20 04:45:00,71.1,71.0,30.06,East,99,3.0,3.0,98,0.00,,,0.04,weatherlink.com 1.10,2013-08-20 08:45:00,
2013-08-20 05:00:00,71.1,71.0,30.07,East,82,0.0,1.0,98,0.00,,,0.04,weatherlink.com 1.10,2013-08-20 09:00:00,
2013-08-20 05:15:00,71.1,70.0,30.07,East,96,0.0,3.0,97,0.00,,,0.04,weatherlink.com 1.10,2013-08-20 09:15:00,
2013-08-20 05:30:00,71.1,71.0,30.07,East,94,0.0,0.0,98,0.00,,,0.04,weatherlink.com 1.10,2013-08-20 09:30:00,
2013-08-20 05:45:00,70.7,70.0,30.07,East,86,0.0,2.0,98,0.00,,,0.04,weatherlink.com 1.10,2013-08-20 09:45:00,
2013-08-20 06:00:00,70.6,70.0,30.07,East,89,0.0,3.0,98,0.00,,,0.00,weatherlink.com 1.10,2013-08-20 10:00:00,
2013-08-20 06:15:00,70.5,70.0,30.07,East,95,0.0,2.0,98,0.00,,,0.00,weatherlink.com 1.10,2013-08-20 10:15:00,
2013-08-20 06:30:00,70.5,70.0,30.08,East,91,0.0,1.0,98,0.00,,,0.00,weatherlink.com 1.10,2013-08-20 10:30:00,
2013-08-20 06:45:00,70.5,70.0,30.08,ENE,76,0.0,3.0,98,0.00,,,0.00,weatherlink.com 1.10,2013-08-20 10:45:00,
2013-08-20 07:00:00,70.6,70.0,30.08,East,81,0.0,0.0,99,0.00,,,0.00,weatherlink.com 1.10,2013-08-20 11:00:00,
2013-08-20 07:15:00,70.6,70.0,30.09,East,84,0.0,3.0,98,0.00,,,0.00,weatherlink.com 1.10,2013-08-20 11:15:00,
2013-08-20 07:30:00,70.7,70.0,30.09,East,88,0.0,1.0,98,0.00,,,0.00,weatherlink.com 1.10,2013-08-20 11:30:00,
2013-08-20 07:45:00,70.7,70.0,30.10,ENE,77,0.0,3.0,98,0.00,,,0.00,weatherlink.com 1.10,2013-08-20 11:45:00,
2013-08-20 08:00:00,70.8,70.0,30.10,East,96,0.0,1.0,98,0.00,,,0.00,weatherlink.com 1.10,2013-08-20 12:00:00,
2013-08-20 08:15:00,70.9,70.0,30.10,East,91,0.0,4.0,98,0.00,,,0.00,weatherlink.com 1.10,2013-08-20 12:15:00,
2013-08-20 08:30:00,71.1,71.0,30.11,East,91,0.0,2.0,98,0.00,,,0.00,weatherlink.com 1.10,2013-08-20 12:30:00,
2013-08-20 08:45:00,71.3,70.0,30.11,East,91,0.0,1.0,97,0.00,,,0.00,weatherlink.com 1.10,2013-08-20 12:45:00,
2013-08-20 09:00:00,71.6,70.0,30.12,ENE,69,0.0,3.0,96,0.00,,,0.00,weatherlink.com 1.10,2013-08-20 13:00:00,
2013-08-20 09:16:00,71.9,71.0,30.12,East,83,0.0,4.0,96,0.00,,,0.00,weatherlink.com 1.10,2013-08-20 13:16:00,
2013-08-20 09:31:00,72.2,71.0,30.12,ESE,113,0.0,4.0,96,0.00,,,0.00,weatherlink.com 1.10,2013-08-20 13:31:00,
2013-08-20 09:46:00,72.7,71.0,30.12,East,94,0.0,2.0,95,0.00,,,0.00,weatherlink.com 1.10,2013-08-20 13:46:00,
2013-08-20 10:01:00,73.5,72.0,30.13,ESE,108,3.0,4.0,94,0.00,,,0.00,weatherlink.com 1.10,2013-08-20 14:01:00,
2013-08-20 10:16:00,74.0,72.0,30.13,ENE,64,0.0,6.0,92,0.00,,,0.00,weatherlink.com 1.10,2013-08-20 14:16:00,
2013-08-20 10:31:00,74.4,72.0,30.14,East,80,0.0,9.0,91,0.00,,,0.00,weatherlink.com 1.10,2013-08-20 14:31:00,
2013-08-20 10:46:00,74.6,72.0,30.14,East,85,0.0,5.0,92,0.00,,,0.00,weatherlink.com 1.10,2013-08-20 14:46:00,
2013-08-20 11:01:00,75.6,73.0,30.14,East,94,0.0,3.0,92,0.00,,,0.00,weatherlink.com 1.10,2013-08-20 15:01:00,
2013-08-20 11:16:00,75.3,73.0,30.14,East,88,0.0,2.0,91,0.00,,,0.00,weatherlink.com 1.10,2013-08-20 15:16:00,
2013-08-20 11:31:00,75.1,72.0,30.15,ESE,105,2.0,6.0,91,0.00,,,0.00,weatherlink.com 1.10,2013-08-20 15:31:00,
2013-08-20 11:46:00,75.1,72.0,30.15,East,90,2.0,2.0,91,0.00,,,0.00,weatherlink.com 1.10,2013-08-20 15:46:00,
2013-08-20 12:01:00,74.6,72.0,30.15,East,96,0.0,3.0,91,0.00,,,0.00,weatherlink.com 1.10,2013-08-20 16:01:00,
2013-08-20 12:16:00,75.4,73.0,30.15,East,85,0.0,3.0,92,0.00,,,0.00,weatherlink.com 1.10,2013-08-20 16:16:00,
2013-08-20 12:46:00,75.4,72.0,30.16,East,85,0.0,3.0,90,0.00,,,0.00,weatherlink.com 1.10,2013-08-20 16:46:00,
2013-08-20 13:01:00,75.5,73.0,30.15,ESE,103,0.0,3.0,91,0.00,,,0.00,weatherlink.com 1.10,2013-08-20 17:01:00,
2013-08-20 13:16:00,75.9,73.0,30.15,East,87,1.0,2.0,90,0.00,,,0.00,weatherlink.com 1.10,2013-08-20 17:16:00,
2013-08-20 13:31:00,75.0,72.0,30.15,East,81,0.0,2.0,91,0.00,,,0.00,weatherlink.com 1.10,2013-08-20 17:31:00,
2013-08-20 13:46:00,75.6,73.0,30.15,East,80,0.0,2.0,91,0.00,,,0.00,weatherlink.com 1.10,2013-08-20 17:46:00,
2013-08-20 14:01:00,75.1,72.0,30.14,ENE,72,0.0,2.0,90,0.00,,,0.00,weatherlink.com 1.10,2013-08-20 18:01:00,
2013-08-20 14:16:00,74.6,73.0,30.14,East,101,0.0,3.0,93,0.00,,,0.00,weatherlink.com 1.10,2013-08-20 18:16:00,
2013-08-20 14:31:00,74.8,73.0,30.13,East,93,0.0,1.0,94,0.02,,,0.02,weatherlink.com 1.10,2013-08-20 18:31:00,
2013-08-20 14:46:00,74.6,73.0,30.12,East,90,0.0,1.0,94,0.05,,,0.05,weatherlink.com 1.10,2013-08-20 18:46:00,
2013-08-20 15:01:00,75.6,75.0,30.12,East,98,0.0,0.0,97,0.05,,,0.05,weatherlink.com 1.10,2013-08-20 19:01:00,
2013-08-20 15:16:00,77.6,75.0,30.11,ESE,116,1.0,3.0,91,0.05,,,0.05,weatherlink.com 1.10,2013-08-20 19:16:00,
2013-08-20 15:31:00,79.0,77.0,30.10,North,3,0.0,0.0,92,0.03,,,0.05,weatherlink.com 1.10,2013-08-20 19:31:00,
2013-08-20 15:46:00,79.2,75.0,30.09,ESE,115,0.0,3.0,87,0.00,,,0.05,weatherlink.com 1.10,2013-08-20 19:46:00,
2013-08-20 16:01:00,78.5,74.0,30.09,ENE,77,3.0,5.0,85,0.00,,,0.05,weatherlink.com 1.10,2013-08-20 20:01:00,
2013-08-20 16:16:00,78.7,74.0,30.09,East,100,1.0,2.0,85,0.00,,,0.05,weatherlink.com 1.10,2013-08-20 20:16:00,
2013-08-20 16:31:00,79.6,76.0,30.08,ESE,117,0.0,2.0,89,0.00,,,0.05,weatherlink.com 1.10,2013-08-20 20:31:00,
2013-08-20 16:46:00,80.8,75.0,30.08,East,88,0.0,4.0,81,0.00,,,0.05,weatherlink.com 1.10,2013-08-20 20:46:00,
2013-08-20 17:01:00,80.3,75.0,30.08,SE,124,0.0,1.0,84,0.00,,,0.05,weatherlink.com 1.10,2013-08-20 21:01:00,
2013-08-20 17:16:00,79.6,74.0,30.09,East,93,2.0,7.0,82,0.00,,,0.05,weatherlink.com 1.10,2013-08-20 21:16:00,
2013-08-20 17:31:00,78.7,75.0,30.09,ESE,110,0.0,0.0,87,0.00,,,0.05,weatherlink.com 1.10,2013-08-20 21:31:00,
2013-08-20 17:46:00,78.6,74.0,30.08,ESE,102,0.0,1.0,85,0.00,,,0.05,weatherlink.com 1.10,2013-08-20 21:46:00,
2013-08-20 18:01:00,79.5,75.0,30.08,ESE,118,0.0,1.0,86,0.00,,,0.05,weatherlink.com 1.10,2013-08-20 22:01:00,
2013-08-20 18:16:00,80.9,75.0,30.08,ESE,105,0.0,2.0,82,0.00,,,0.05,weatherlink.com 1.10,2013-08-20 22:16:00,
2013-08-20 18:31:00,81.7,75.0,30.08,ESE,110,0.0,1.0,80,0.00,,,0.05,weatherlink.com 1.10,2013-08-20 22:31:00,
2013-08-20 18:46:00,79.4,74.0,30.08,East,92,0.0,1.0,84,0.00,,,0.05,weatherlink.com 1.10,2013-08-20 22:46:00,
2013-08-20 19:01:00,79.2,74.0,30.08,ESE,118,0.0,1.0,85,0.00,,,0.05,weatherlink.com 1.10,2013-08-20 23:01:00,
2013-08-20 19:16:00,79.1,74.0,30.08,ESE,103,0.0,1.0,85,0.00,,,0.05,weatherlink.com 1.10,2013-08-20 23:16:00,
2013-08-20 19:31:00,78.0,74.0,30.09,ESE,112,0.0,0.0,87,0.00,,,0.05,weatherlink.com 1.10,2013-08-20 23:31:00,
2013-08-20 19:46:00,76.7,73.0,30.09,ESE,111,0.0,1.0,89,0.00,,,0.05,weatherlink.com 1.10,2013-08-20 23:46:00,
2013-08-20 20:02:00,75.9,73.0,30.10,ESE,112,0.0,1.0,91,0.00,,,0.05,weatherlink.com 1.10,2013-08-21 00:02:00,
2013-08-20 20:17:00,75.3,73.0,30.10,ESE,112,0.0,0.0,92,0.00,,,0.05,weatherlink.com 1.10,2013-08-21 00:17:00,
2013-08-20 20:32:00,74.6,73.0,30.10,ESE,112,0.0,0.0,94,0.00,,,0.05,weatherlink.com 1.10,2013-08-21 00:32:00,
2013-08-20 20:47:00,74.4,73.0,30.10,ESE,112,0.0,0.0,95,0.00,,,0.05,weatherlink.com 1.10,2013-08-21 00:47:00,
2013-08-20 21:02:00,74.1,73.0,30.10,ESE,112,0.0,1.0,95,0.00,,,0.05,weatherlink.com 1.10,2013-08-21 01:02:00,
2013-08-20 21:17:00,74.1,73.0,30.10,ESE,111,0.0,0.0,95,0.00,,,0.05,weatherlink.com 1.10,2013-08-21 01:17:00,
2013-08-20 21:32:00,73.9,73.0,30.11,ESE,111,0.0,0.0,96,0.00,,,0.05,weatherlink.com 1.10,2013-08-21 01:32:00,
2013-08-20 21:47:00,73.7,73.0,30.11,ESE,111,0.0,0.0,97,0.00,,,0.05,weatherlink.com 1.10,2013-08-21 01:47:00,
2013-08-20 22:02:00,73.4,73.0,30.12,ESE,112,0.0,0.0,97,0.00,,,0.05,weatherlink.com 1.10,2013-08-21 02:02:00,
2013-08-20 22:17:00,73.6,73.0,30.13,ESE,110,0.0,0.0,97,0.00,,,0.05,weatherlink.com 1.10,2013-08-21 02:17:00,
2013-08-20 22:32:00,73.9,73.0,30.14,ESE,110,0.0,0.0,97,0.00,,,0.05,weatherlink.com 1.10,2013-08-21 02:32:00,
2013-08-20 22:47:00,73.9,73.0,30.15,ESE,119,0.0,0.0,96,0.00,,,0.05,weatherlink.com 1.10,2013-08-21 02:47:00,
2013-08-20 23:02:00,74.0,73.0,30.15,ESE,119,0.0,0.0,96,0.00,,,0.05,weatherlink.com 1.10,2013-08-21 03:02:00,
2013-08-20 23:17:00,73.8,73.0,30.15,ESE,120,0.0,0.0,96,0.00,,,0.05,weatherlink.com 1.10,2013-08-21 03:17:00,
2013-08-20 23:32:00,73.7,73.0,30.15,East,100,0.0,0.0,96,0.00,,,0.05,weatherlink.com 1.10,2013-08-21 03:32:00,
2013-08-20 23:47:00,73.7,73.0,30.15,SE,131,0.0,0.0,96,0.00,,,0.05,weatherlink.com 1.10,2013-08-21 03:47:00,